| time (UTC) | temp F | wind direction | speed MPH | gust MPH | rain 1hr in | rain 24hr in | rain mn in | humidity % | barometer mb |
| 20260831040049 | 60 | 164 | 0.0 | 0.0 | 0.00 | 0.00 | 0.00 | 75 | 1004.0 |
| 20260831034543 | 61 | 164 | 0.0 | 0.0 | 0.00 | 0.00 | 0.00 | 74 | 1003.9 |
| 20260831033043 | 61 | 165 | 0.0 | 0.0 | 0.00 | 0.00 | 0.00 | 74 | 1003.8 |
| 20260831031544 | 61 | 165 | 0.0 | 0.0 | 0.00 | 0.00 | 0.00 | 73 | 1003.6 |
| 20260831030039 | 62 | 165 | 0.0 | 0.0 | 0.00 | 0.00 | 0.00 | 72 | 1003.4 |
| 20260831024538 | 62 | 165 | 0.0 | 0.0 | 0.00 | 0.00 | 0.00 | 72 | 1003.1 |
| 20260831023040 | 63 | 165 | 0.0 | 0.0 | 0.00 | 0.00 | 0.00 | 72 | 1003.0 |
| 20260831021548 | 64 | 202 | 0.0 | 0.0 | 0.00 | 0.00 | 0.00 | 71 | 1002.9 |
| 20260831020028 | 64 | 202 | 0.0 | 0.0 | 0.00 | 0.00 | 0.00 | 70 | 1002.9 |
| 20260831014527 | 65 | 200 | 0.0 | 0.0 | 0.00 | 0.00 | 0.00 | 68 | 1003.0 |
| 20260831013026 | 65 | 67 | 0.0 | 1.0 | 0.00 | 0.00 | 0.00 | 68 | 1003.2 |
| 20260831011523 | 66 | 65 | 0.0 | 1.0 | 0.00 | 0.00 | 0.00 | 69 | 1003.1 |
| 20260831010039 | 66 | 63 | 0.0 | 1.0 | 0.00 | 0.00 | 0.00 | 69 | 1003.2 |
| 20260831004519 | 66 | 62 | 0.0 | 1.0 | 0.00 | 0.00 | 0.00 | 69 | 1003.3 |
| 20260831003017 | 66 | 63 | 0.0 | 1.0 | 0.00 | 0.00 | 0.00 | 68 | 1003.2 |
| 20260831001529 | 67 | 238 | 0.0 | 1.0 | 0.00 | 0.00 | 0.00 | 66 | 1003.2 |
| 20260831000015 | 67 | 311 | 0.0 | 1.0 | 0.00 | 0.00 | 0.00 | 67 | 1003.0 |
| 20260830234514 | 67 | 148 | 0.0 | 1.0 | 0.00 | 0.00 | 0.00 | 67 | 1003.0 |
| 20260830233015 | 67 | 8 | 0.0 | 3.0 | 0.00 | 0.00 | 0.00 | 66 | 1003.0 |
| 20260830231525 | 68 | 23 | 0.0 | 3.0 | 0.00 | 0.00 | 0.00 | 64 | 1002.9 |
| 20260830230013 | 68 | 359 | 0.0 | 0.0 | 0.00 | 0.00 | 0.00 | 65 | 1002.8 |
| 20260830224511 | 68 | 74 | 1.0 | 4.0 | 0.00 | 0.00 | 0.00 | 64 | 1002.9 |
| 20260830223016 | 68 | 60 | 0.0 | 3.0 | 0.00 | 0.00 | 0.00 | 64 | 1002.9 |
| 20260830221509 | 68 | 62 | 0.0 | 2.0 | 0.00 | 0.00 | 0.00 | 65 | 1002.8 |
| 20260830220008 | 68 | 70 | 0.0 | 3.0 | 0.00 | 0.00 | 0.00 | 65 | 1002.8 |
| 20260830214504 | 68 | 61 | 0.0 | 3.0 | 0.00 | 0.00 | 0.00 | 66 | 1002.9 |
| 20260830213003 | 67 | 58 | 0.0 | 5.0 | 0.00 | 0.00 | 0.00 | 66 | 1002.8 |
| 20260830211508 | 67 | 64 | 0.0 | 3.0 | 0.00 | 0.00 | 0.00 | 65 | 1002.8 |
| 20260830210002 | 67 | 74 | 0.0 | 2.0 | 0.00 | 0.00 | 0.00 | 65 | 1002.6 |
| 20260830204600 | 67 | 59 | 0.0 | 3.0 | 0.00 | 0.00 | 0.00 | 67 | 1002.5 |
| 20260830203119 | 67 | 62 | 0.0 | 2.0 | 0.00 | 0.00 | 0.00 | 68 | 1002.5 |
| 20260830201600 | 67 | 68 | 1.0 | 3.0 | 0.00 | 0.00 | 0.00 | 69 | 1002.5 |
| 20260830200059 | 66 | 72 | 0.0 | 3.0 | 0.00 | 0.00 | 0.00 | 72 | 1002.5 |
| 20260830194552 | 65 | 82 | 0.0 | 2.0 | 0.00 | 0.00 | 0.00 | 74 | 1002.6 |
| 20260830193051 | 65 | 65 | 0.0 | 4.0 | 0.00 | 0.00 | 0.00 | 76 | 1002.5 |
| 20260830191547 | 65 | 68 | 1.0 | 3.0 | 0.00 | 0.00 | 0.00 | 76 | 1002.6 |
| 20260830190045 | 64 | 62 | 0.0 | 3.0 | 0.00 | 0.00 | 0.00 | 77 | 1002.3 |
| 20260830184542 | 63 | 63 | 0.0 | 2.0 | 0.00 | 0.00 | 0.00 | 79 | 1002.0 |
| 20260830183040 | 63 | 70 | 0.0 | 3.0 | 0.00 | 0.00 | 0.00 | 80 | 1002.3 |
| 20260830181546 | 62 | 61 | 0.0 | 3.0 | 0.00 | 0.00 | 0.00 | 82 | 1002.3 |
| 20260830180052 | 62 | 79 | 0.0 | 2.0 | 0.00 | 0.00 | 0.00 | 83 | 1002.2 |
| 20260830174541 | 61 | 62 | 0.0 | 2.0 | 0.00 | 0.00 | 0.00 | 83 | 1002.3 |
| 20260830173055 | 61 | 68 | 0.0 | 1.0 | 0.00 | 0.00 | 0.00 | 83 | 1002.6 |
| 20260830171535 | 60 | 66 | 0.0 | 2.0 | 0.00 | 0.00 | 0.00 | 83 | 1002.6 |
| 20260830170032 | 59 | 72 | 0.0 | 1.0 | 0.00 | 0.00 | 0.00 | 85 | 1002.7 |
| 20260830164533 | 58 | 81 | 0.0 | 0.0 | 0.00 | 0.00 | 0.00 | 86 | 1002.8 |
| 20260830163030 | 58 | 79 | 0.0 | 1.0 | 0.00 | 0.00 | 0.00 | 85 | 1002.6 |
| 20260830161529 | 58 | 65 | 0.0 | 3.0 | 0.00 | 0.00 | 0.00 | 85 | 1002.7 |
| 20260830160033 | 58 | 67 | 0.0 | 0.0 | 0.00 | 0.00 | 0.00 | 85 | 1002.6 |
| 20260830154531 | 58 | 76 | 0.0 | 0.0 | 0.00 | 0.00 | 0.00 | 85 | 1002.6 |
| 20260830153027 | 58 | 76 | 0.0 | 0.0 | 0.00 | 0.00 | 0.00 | 85 | 1002.6 |
| 20260830151526 | 58 | 220 | 0.0 | 0.0 | 0.00 | 0.00 | 0.00 | 85 | 1002.6 |
| 20260830150026 | 57 | 342 | 0.0 | 0.0 | 0.00 | 0.00 | 0.00 | 85 | 1002.6 |
| 20260830144527 | 57 | 1 | 0.0 | 0.0 | 0.00 | 0.00 | 0.00 | 85 | 1002.5 |
| 20260830143028 | 57 | 29 | 0.0 | 0.0 | 0.00 | 0.00 | 0.00 | 86 | 1002.4 |
| 20260830141525 | 56 | 29 | 0.0 | 0.0 | 0.00 | 0.00 | 0.00 | 86 | 1002.3 |
| 20260830140026 | 56 | 348 | 0.0 | 0.0 | 0.00 | 0.00 | 0.00 | 87 | 1002.3 |
| 20260830134538 | 56 | 8 | 0.0 | 1.0 | 0.00 | 0.00 | 0.00 | 87 | 1002.4 |
| 20260830133027 | 56 | 27 | 0.0 | 3.0 | 0.00 | 0.00 | 0.00 | 88 | 1002.5 |
| 20260830131524 | 56 | 25 | 0.0 | 2.0 | 0.00 | 0.00 | 0.00 | 89 | 1002.5 |
| 20260830130019 | 56 | 333 | 0.0 | 0.0 | 0.00 | 0.00 | 0.00 | 89 | 1002.5 |
| 20260830124522 | 56 | 27 | 0.0 | 2.0 | 0.00 | 0.00 | 0.00 | 89 | 1002.3 |
| 20260830123021 | 56 | 30 | 0.0 | 0.0 | 0.00 | 0.00 | 0.00 | 89 | 1002.0 |
| 20260830121518 | 56 | 30 | 0.0 | 0.0 | 0.00 | 0.00 | 0.00 | 89 | 1002.0 |
| 20260830120017 | 56 | 342 | 0.0 | 0.0 | 0.00 | 0.00 | 0.00 | 88 | 1002.4 |
| 20260830114516 | 56 | 11 | 0.0 | 0.0 | 0.00 | 0.00 | 0.00 | 88 | 1002.4 |
| 20260830113021 | 56 | 27 | 0.0 | 0.0 | 0.00 | 0.00 | 0.00 | 87 | 1002.3 |
| 20260830111512 | 56 | 27 | 0.0 | 0.0 | 0.00 | 0.00 | 0.00 | 86 | 1002.2 |
| 20260830110014 | 57 | 27 | 0.0 | 0.0 | 0.00 | 0.00 | 0.00 | 86 | 1002.1 |
| 20260830104510 | 57 | 25 | 0.0 | 0.0 | 0.00 | 0.00 | 0.00 | 86 | 1002.2 |
| 20260830103009 | 57 | 27 | 0.0 | 0.0 | 0.00 | 0.00 | 0.00 | 85 | 1002.1 |
| 20260830101506 | 57 | 27 | 0.0 | 0.0 | 0.00 | 0.00 | 0.00 | 84 | 1001.8 |
| 20260830100005 | 58 | 28 | 0.0 | 0.0 | 0.00 | 0.00 | 0.00 | 84 | 1001.8 |
| 20260830094504 | 58 | 25 | 0.0 | 1.0 | 0.00 | 0.00 | 0.00 | 83 | 1001.8 |
| 20260830093002 | 58 | 24 | 0.0 | 0.0 | 0.00 | 0.00 | 0.00 | 82 | 1002.0 |
| 20260830091600 | 59 | 21 | 0.0 | 1.0 | 0.00 | 0.00 | 0.00 | 82 | 1001.8 |
| 20260830090103 | 59 | 23 | 0.0 | 0.0 | 0.00 | 0.00 | 0.00 | 83 | 1001.9 |
| 20260830084556 | 60 | 14 | 0.0 | 2.0 | 0.00 | 0.00 | 0.00 | 84 | 1001.9 |
| 20260830083054 | 61 | 25 | 0.0 | 0.0 | 0.00 | 0.00 | 0.00 | 83 | 1002.1 |
| 20260830081551 | 61 | 27 | 0.0 | 0.0 | 0.00 | 0.00 | 0.00 | 80 | 1002.1 |
| 20260830080051 | 61 | 27 | 0.0 | 0.0 | 0.00 | 0.00 | 0.00 | 79 | 1002.0 |
| 20260830074632 | 62 | 27 | 0.0 | 0.0 | 0.00 | 0.00 | 0.00 | 79 | 1001.7 |
| 20260830073101 | 62 | 25 | 0.0 | 0.0 | 0.00 | 0.00 | 0.00 | 80 | 1001.9 |
| 20260830071549 | 62 | 357 | 0.0 | 1.0 | 0.00 | 0.00 | 0.00 | 81 | 1001.8 |
| 20260830070052 | 62 | 318 | 0.0 | 2.0 | 0.00 | 0.00 | 0.00 | 81 | 1002.0 |
| 20260830064543 | 62 | 245 | 0.0 | 1.0 | 0.00 | 0.00 | 0.00 | 80 | 1002.6 |
| 20260830063041 | 63 | 82 | 0.0 | 0.0 | 0.00 | 0.00 | 0.00 | 78 | 1002.5 |
| 20260830061539 | 63 | 82 | 0.0 | 0.0 | 0.00 | 0.00 | 0.00 | 77 | 1002.2 |
| 20260830060036 | 63 | 82 | 0.0 | 1.0 | 0.00 | 0.00 | 0.00 | 77 | 1002.3 |
| 20260830054545 | 63 | 84 | 0.0 | 2.0 | 0.00 | 0.00 | 0.00 | 77 | 1002.3 |
| 20260830053039 | 63 | 60 | 0.0 | 3.0 | 0.00 | 0.00 | 0.00 | 77 | 1002.2 |
| 20260830051544 | 64 | 60 | 0.0 | 3.0 | 0.00 | 0.00 | 0.00 | 76 | 1002.2 |
| 20260830050033 | 64 | 61 | 0.0 | 4.0 | 0.00 | 0.00 | 0.00 | 76 | 1002.2 |
| 20260830044540 | 64 | 58 | 0.0 | 2.0 | 0.00 | 0.00 | 0.00 | 75 | 1002.2 |
| 20260830043032 | 64 | 63 | 1.0 | 3.0 | 0.00 | 0.00 | 0.00 | 75 | 1002.6 |
| 20260830041556 | 64 | 64 | 0.0 | 2.0 | 0.00 | 0.00 | 0.00 | 74 | 1002.8 |